FENGYUN 1C DEB, 31169

Orbit data source: Space-Track

FENGYUN 1C DEB, 31169 is space debris in SSO originally from a launch on Mon, 10 May 1999 UTC launched from the Taiyaun Space Center, China (TSC). Fengyun 1C debris stems from the Chinese weather satellite Fengyun-1C, which was intentionally destroyed by a Chinese anti-satellite missile in 2007. This event dramatically increased the amount of space debris, with thousands of trackable fragments posing hazards to satellites and human spaceflight. The Fengyun 1C debris cloud has become a focal point in discussions about space sustainability and the need for international regulations to prevent the creation of new debris.

Loading next visibility...
Identifier
31169, 1999-025BHX
Orbit
SSO
Country
Flag of CNCN / PRC
Related business
Manufacturer
Unknown
Mission
Spacecraft
Bus & Motor
Unknown
Mass
Unknown
Launch date (UTC)
1999-05-10 (27 years ago)
Launch vehicle
Unknown
Launch site
Taiyaun Space Center, China (TSC)
Object type
Payload
Rocket body
Debris
Shape & HBR
Unknown shape, 0.1 m
Radar Cross Section
Small (<0.1 m²)

Expand to show TLE details & history
Last TLE update: 2 days ago

TLE from 2 days ago
0 FENGYUN 1C DEB
1 31169U 99025BHX 26060.05436286  .00004551  00000-0  18427-2 0  9992
2 31169  99.1509  95.0740 0059188 152.4129 208.0212 14.27319213582211
Epoch: 2026-03-01T01:18Z
TLE epoch observation values (Epoch: 2026-03-01T01:18:16.951Z)
Latitude
-0.00002°
Longitude
-83.36426°
Altitude
841.188 km
Speed
7.413 km/s
True Right ascension
06h 20m 17s
True Declination
0° 00' 00"
Sunlit
Object was in daylight at epoch
Visualization orbit readout
Latitude
Unknown
Longitude
Unknown
Altitude
Unknown
Speed
Unknown
Apparent Right ascension
Unknown
Apparent Declination
Unknown
Sunlit
N/A
Visualization observer readout
Local Sidereal Time
14:47:28
Azimuth
Unknown
Elevation
Unknown
Doppler factor
Unknown
Orbital elements
Apogee altitude
840.349 km
Perigee altitude
755.403 km
Semi-major axis
7,176.013 km
Eccentricity
0.00592
Inclination
99.1509°
RAAN
95.074°
Arg. of periapsis
152.4129°
True anomaly
207.70463°
Mean anomaly
208.0212°
Eccentric anomaly
207.86271°
Mean motion
3.57041 °/min
Orbital period
100.83 mins
BSTAR
0.0018427
Loading maneuver chart data...
Computing Atmospheric mass density...

Documentation

Showing up to 5 results
|